Starlink 1672

operational
NORAD ID: 46537 Int'l Des: 2020-070 Owner: SPXS Country: US Constellation: starlink
LEOCIRCULARSTARLINK_TYPE

About Starlink 1672

Description loading...

Live Position

Loading 3D Globe...

Upcoming Passes

Altitude History

Altitude vs Time

uPlot chart will show altitude changes over time

Two-Line Element Set

1 46537U 20070F 26036.42639817 .00072623 00000-0 13137-2 0 9998
2 46537 53.0496 293.7259 0002624 45.2904 314.8317 15.49043705295033
Epoch: Feb 5, 2026 • Age: 15 hours

Current Status

Altitude 421.3 km
Velocity 7.66 km/s
Sub-Earth Point 0.16°N, 39.64°W
Launch Date Oct 6, 2020
Age 5.3 years
Type internet

Technical Details

Classification Payload
Mass 260.00 kg
Dry Mass 248.00 kg
Total Mass 260.00 kg
Length 0.20 m
Diameter 2.80 m
Span 9.00 m
Shape Box + pan
Manufacturer SPXS
Bus Type Starlink
Phase Status In Orbit
Owner/State SPXS/US

Large Constellations

Loading constellations...